EN

Hourly Weather Novopushkinskoe

Today, 18 May, Tuesday

Time Temperature Precipitation Wind Pressure Humidity
00:00 +20°C° 0 mm 3 mps 756 mmHg 45%
01:00 +19°C° 0 mm 3 mps 756 mmHg 47%
02:00 +18°C° 0 mm 3 mps 755 mmHg 48%
03:00 +18°C° 0 mm 3 mps 755 mmHg 49%
04:00 +18°C° 0 mm 3 mps 755 mmHg 51%
05:00 +18°C° 0 mm 2 mps 755 mmHg 53%
06:00 +19°C° 0 mm 2 mps 755 mmHg 54%
07:00 +21°C° 0 mm 3 mps 755 mmHg 48%
08:00 +24°C° 0 mm 3 mps 755 mmHg 42%
09:00 +27°C° 0 mm 4 mps 755 mmHg 35%
10:00 +28°C° 0 mm 5 mps 755 mmHg 31%
11:00 +30°C° 0 mm 5 mps 755 mmHg 26%
12:00 +33°C° 0 mm 6 mps 755 mmHg 22%
13:00 +33°C° 0 mm 6 mps 755 mmHg 23%
14:00 +33°C° 0 mm 6 mps 754 mmHg 24%
15:00 +33°C° 0 mm 6 mps 754 mmHg 25%
16:00 +32°C° 0 mm 5 mps 754 mmHg 29%
17:00 +30°C° 0 mm 4 mps 754 mmHg 33%
18:00 +29°C° 0 mm 3 mps 754 mmHg 37%
19:00 +27°C° 0 mm 4 mps 754 mmHg 37%
20:00 +26°C° 0 mm 4 mps 754 mmHg 38%
21:00 +23°C° 0 mm 5 mps 754 mmHg 39%
22:00 +23°C° 0 mm 5 mps 754 mmHg 39%
23:00 +22°C° 0 mm 5 mps 754 mmHg 39%

Tomorrow, 19 May, Wednesday

Time Temperature Precipitation Wind Pressure Humidity
00:00 +22°C° 0 mm 4 mps 753 mmHg 39%
01:00 +21°C° 0 mm 4 mps 753 mmHg 42%
02:00 +20°C° 0 mm 4 mps 753 mmHg 44%
03:00 +20°C° 0 mm 4 mps 753 mmHg 46%
04:00 +20°C° 0 mm 4 mps 753 mmHg 48%
05:00 +20°C° 0 mm 4 mps 753 mmHg 50%
06:00 +21°C° 0 mm 4 mps 753 mmHg 52%
07:00 +23°C° 0 mm 5 mps 753 mmHg 48%
08:00 +25°C° 0 mm 5 mps 753 mmHg 45%
09:00 +27°C° 0 mm 6 mps 753 mmHg 41%
10:00 +29°C° 0 mm 7 mps 753 mmHg 38%
11:00 +30°C° 0 mm 7 mps 753 mmHg 35%
12:00 +32°C° 0 mm 8 mps 753 mmHg 32%
13:00 +32°C° 0 mm 8 mps 753 mmHg 32%
14:00 +32°C° 0 mm 7 mps 752 mmHg 32%
15:00 +32°C° 0 mm 7 mps 752 mmHg 32%
16:00 +30°C° 0 mm 7 mps 752 mmHg 34%
17:00 +29°C° 0 mm 7 mps 752 mmHg 36%
18:00 +28°C° 0 mm 6 mps 752 mmHg 38%
19:00 +26°C° 0.3 mm 5 mps 752 mmHg 46%
20:00 +23°C° 0.3 mm 4 mps 752 mmHg 54%
21:00 +21°C° 0.3 mm 3 mps 753 mmHg 63%
22:00 +20°C° 1.5 mm 3 mps 753 mmHg 70%
23:00 +19°C° 1.5 mm 2 mps 753 mmHg 77%

Day after tomorrow, 20 May, Thursday

Time Temperature Precipitation Wind Pressure Humidity
00:00 +19°C° 1.5 mm 1 mps 753 mmHg 83%
01:00 +18°C° 0.2 mm 2 mps 753 mmHg 84%
02:00 +18°C° 0.2 mm 3 mps 753 mmHg 84%
03:00 +18°C° 0.2 mm 3 mps 753 mmHg 85%
04:00 +18°C° 0.1 mm 4 mps 753 mmHg 85%
05:00 +18°C° 0.1 mm 4 mps 754 mmHg 85%
06:00 +18°C° 0.1 mm 4 mps 754 mmHg 86%
07:00 +18°C° 0 mm 4 mps 754 mmHg 84%
08:00 +18°C° 0 mm 4 mps 754 mmHg 83%
09:00 +18°C° 0 mm 4 mps 754 mmHg 81%
10:00 +18°C° 0.7 mm 3 mps 754 mmHg 82%
11:00 +18°C° 0.7 mm 3 mps 755 mmHg 83%
12:00 +17°C° 0.7 mm 2 mps 755 mmHg 84%
13:00 +19°C° 0.1 mm 2 mps 754 mmHg 74%
14:00 +20°C° 0.1 mm 3 mps 754 mmHg 64%
15:00 +21°C° 0.1 mm 3 mps 754 mmHg 54%
16:00 +21°C° 0 mm 3 mps 754 mmHg 58%
17:00 +20°C° 0 mm 3 mps 754 mmHg 61%
18:00 +20°C° 0 mm 3 mps 754 mmHg 65%
19:00 +18°C° 0 mm 3 mps 755 mmHg 68%
20:00 +17°C° 0 mm 3 mps 755 mmHg 72%
21:00 +16°C° 0 mm 3 mps 755 mmHg 76%
22:00 +16°C° 0 mm 3 mps 755 mmHg 79%
23:00 +14°C° 0 mm 3 mps 755 mmHg 81%

21 May, Friday

Time Temperature Precipitation Wind Pressure Humidity
00:00 +14°C° 0 mm 3 mps 755 mmHg 84%
01:00 +13°C° 0 mm 3 mps 756 mmHg 86%
02:00 +13°C° 0 mm 3 mps 756 mmHg 88%
03:00 +13°C° 0 mm 3 mps 756 mmHg 90%
04:00 +14°C° 0 mm 2 mps 757 mmHg 88%
05:00 +15°C° 0 mm 2 mps 757 mmHg 85%
06:00 +15°C° 0 mm 2 mps 757 mmHg 83%
07:00 +17°C° 0 mm 2 mps 758 mmHg 76%
08:00 +18°C° 0 mm 3 mps 758 mmHg 69%
09:00 +20°C° 0 mm 3 mps 758 mmHg 62%
10:00 +21°C° 0 mm 3 mps 758 mmHg 58%
11:00 +22°C° 0 mm 4 mps 758 mmHg 54%
12:00 +23°C° 0 mm 4 mps 758 mmHg 50%
13:00 +23°C° 0 mm 4 mps 758 mmHg 49%
14:00 +25°C° 0 mm 4 mps 758 mmHg 48%
15:00 +25°C° 0 mm 4 mps 758 mmHg 47%
16:00 +25°C° 0 mm 4 mps 758 mmHg 50%
17:00 +23°C° 0 mm 4 mps 758 mmHg 53%
18:00 +24°C° 0 mm 3 mps 758 mmHg 57%
19:00 +22°C° 0 mm 3 mps 758 mmHg 58%
20:00 +21°C° 0 mm 3 mps 758 mmHg 60%
21:00 +20°C° 0 mm 3 mps 758 mmHg 61%
22:00 +20°C° 0 mm 3 mps 758 mmHg 62%
23:00 +20°C° 0 mm 3 mps 757 mmHg 62%

22 May, Saturday

Time Temperature Precipitation Wind Pressure Humidity
00:00 +19°C° 0 mm 3 mps 757 mmHg 63%
01:00 +19°C° 0 mm 3 mps 757 mmHg 63%
02:00 +19°C° 0 mm 3 mps 757 mmHg 63%
03:00 +18°C° 0 mm 3 mps 757 mmHg 63%
04:00 +19°C° 0 mm 3 mps 757 mmHg 63%
05:00 +19°C° 0 mm 3 mps 758 mmHg 63%
06:00 +19°C° 0 mm 3 mps 758 mmHg 64%
07:00 +21°C° 0 mm 3 mps 758 mmHg 57%
08:00 +23°C° 0 mm 4 mps 758 mmHg 51%
09:00 +25°C° 0 mm 4 mps 758 mmHg 45%
10:00 +26°C° 0 mm 5 mps 757 mmHg 42%
11:00 +28°C° 0 mm 6 mps 757 mmHg 39%
12:00 +29°C° 0 mm 6 mps 757 mmHg 36%
13:00 +30°C° 0 mm 6 mps 756 mmHg 36%
14:00 +30°C° 0 mm 6 mps 756 mmHg 35%
15:00 +32°C° 0 mm 5 mps 756 mmHg 35%
16:00 +30°C° 0 mm 4 mps 756 mmHg 39%
17:00 +30°C° 0 mm 2 mps 755 mmHg 43%
18:00 +29°C° 0 mm 1 mps 755 mmHg 47%
19:00 +28°C° 0 mm 2 mps 755 mmHg 49%
20:00 +26°C° 0 mm 2 mps 755 mmHg 51%
21:00 +24°C° 0 mm 2 mps 755 mmHg 53%
22:00 +24°C° 0 mm 3 mps 755 mmHg 52%
23:00 +22°C° 0 mm 3 mps 755 mmHg 52%

23 May, Sunday

Time Temperature Precipitation Wind Pressure Humidity
00:00 +22°C° 0 mm 3 mps 756 mmHg 51%
01:00 +21°C° 0 mm 2 mps 756 mmHg 51%
02:00 +21°C° 0 mm 2 mps 756 mmHg 51%
03:00 +21°C° 0 mm 1 mps 756 mmHg 51%
04:00 +22°C° 0 mm 1 mps 756 mmHg 53%
05:00 +22°C° 0 mm 1 mps 756 mmHg 54%
06:00 +22°C° 0 mm 1 mps 756 mmHg 55%
07:00 +23°C° 0 mm 1 mps 757 mmHg 51%
08:00 +24°C° 0 mm 1 mps 757 mmHg 47%
09:00 +26°C° 0 mm 1 mps 757 mmHg 43%
10:00 +27°C° 0 mm 1 mps 757 mmHg 40%
11:00 +29°C° 0 mm 2 mps 757 mmHg 37%
12:00 +30°C° 0 mm 2 mps 756 mmHg 34%
13:00 +31°C° 0 mm 3 mps 756 mmHg 33%
14:00 +33°C° 0 mm 3 mps 756 mmHg 31%
15:00 +33°C° 0 mm 4 mps 756 mmHg 30%
16:00 +32°C° 0 mm 4 mps 756 mmHg 35%
17:00 +30°C° 0 mm 4 mps 756 mmHg 40%
18:00 +29°C° 0 mm 3 mps 756 mmHg 45%
19:00 +28°C° 0 mm 4 mps 756 mmHg 48%
20:00 +26°C° 0 mm 4 mps 756 mmHg 51%
21:00 +25°C° 0 mm 4 mps 756 mmHg 55%
22:00 +23°C° 0 mm 4 mps 756 mmHg 57%
23:00 +22°C° 0 mm 4 mps 757 mmHg 59%
Show more

We Need Your Consent

Meteoprog and our Service Providers may store and access personal data such as cookies, device identifiers or other similar technologies on your device and process such data to personalise content and ads, as well as provide social media features and to analyse the traffic.

  • Store and/or access information on your device

    Cookies, device identifiers or other information can be stored or accessed on your device for the purposes indicated above.

  • Personalised ads and content, ad and content measurement, audience insights, and products development

    Ads and content can be personalised based on a profile. More data can be added to better personalise ads and content. Ad and content performance can be measured. Insights about the audience who saw the ads and content can be derived. Such data can be used to develop or improve user’s experience, systems and software.

By clicking ‘I Agree’ you will allow the use of indicated cookies, device identifiers, web beacons or other similar technologies. Your settings can be changed in the browser on your device.

For certain purposes, legitimate interests may be relied on, rather than consent. You can read more about this in our Privacy and Cookie Policy.